Regional Weather Roundup
Issued by NWS Midland/Odessa, TX

Home | Current Version | Previous Version | Text Only | Print | Product List | Glossary On
Versions: 1 2 3 4 5 6 7 8 9 10 11 12 13 14 15 16 17 18 19 20 21 22 23 24 25 26 27 28 29 30 31 32 33 34 35 36 37 38 39 40 41 42 43 44 45 46 47 48 49 50
000
ASUS44 KMAF 070101
RWRMAF
MIDLAND AREA WEATHER ROUNDUP
NATIONAL WEATHER SERVICE MIDLAND TX
800 PM CDT WED MAY 06 2015

...IN SOUTHWEST TEXAS AND SOUTHEAST NEW MEXICO...

CITY           SKY/WX    TMP DP  RH WIND       PRES   REMARKS
ALPINE         PTCLDY    82  27  13 SW15      29.89S
ANDREWS        FAIR      83  41  22 SW8       29.78S
ARTESIA        CLEAR     82  30  15 S14       29.77S
BIG SPRING     MOCLDY    84  58  42 SE22G31   29.78S
CARLSBAD       CLEAR     81  39  22 SW5       29.74S
DRYDEN           N/A     78  66  66 SE21G28   29.77S
FORT STOCKTON  CLEAR     78  62  57 SE18G31   29.75S
GUAD PASS      NOT AVBL
HOBBS          CLEAR     75  45  33 S10       29.79F
MARFA          CLEAR     77  28  16 S13       29.90R
MIDLAND AIRPK  MOCLDY    80  60  49 S26G33    29.78R
MIDLAND INTL   PTCLDY    78  62  57 S18       29.78R
ODESSA         PTCLDY    79  60  52 S21G30    29.79R
PECOS          CLEAR     88  47  24 SE10      29.71F
PRESIDIO       FAIR      91  25   9 SW6       29.71F
SEMINOLE       CLEAR     80  42  26 S7        29.79F
SNYDER         LGT RAIN  79  63  57 S18G25    29.76R
WINK           CLEAR     87  39  18 S8        29.72F
$$
...OTHER STATIONS IN TEXAS...

CITY           SKY/WX    TMP DP  RH WIND       PRES   REMARKS
ABILENE        PTCLDY    81  64  56 S17       29.77S
AMARILLO       CLEAR     73  46  38 SW15      29.76S
AUSTIN         MOCLDY    79  69  71 SE17      29.83F
BROWNSVILLE    MOCLDY    79  73  82 SE12      29.82S
CORPUS CHRISTI MOCLDY    79  71  76 SE14      29.84R
DALLAS FTW     CLOUDY    77  68  73 SE14      29.83R
DEL RIO        CLOUDY    78  69  73 SE15G24   29.75F
EL PASO        PTCLDY    82  24  12 W6        29.77F
HOUSTON INT    MOCLDY    76  70  82 SE18G24   29.91S
LUBBOCK        PTCLDY    77  48  35 SW8       29.77F
SAN ANGELO     PTCLDY    81  61  50 S16G23    29.79R
SAN ANTONIO    CLOUDY    79  67  66 SE17      29.85R
WACO           CLEAR     79  69  71 SE13      29.84R
WICHITA FALLS  NOT AVBL
$$
...OTHER LOCATIONS IN NEW MEXICO...

CITY           SKY/WX    TMP DP  RH WIND       PRES   REMARKS
ALAMAGORDO     PTCLDY    77  23  13 SW14      29.81S
ALBUQUERQUE    PTSUNNY   68  36  30 W12G18    29.85R
CANNON AFB     CLEAR     72  42  33 SW13      29.80S
CLOVIS         CLEAR     72  45  37 SW12      29.81S
HOLLOMAN AFB   PTCLDY    80  19  10 SW17      29.78F
ROSWELL        CLEAR     79  36  21 S17       29.74S
RUIDOSO        CLEAR     64  25  22 SW14G23   29.96S
SANTA FE       CLOUDY    54  40  59 NW13      29.90R
TRUTH OR CONSE MOSUNNY   76  18  11 S16G25    29.80R
TUCUMCARI      MOCLDY    72  43  35 SW14      29.74S
$$



USA.gov is the U.S. government's official web portal to all federal, state and local government web resources and services.